Showing default

LAPAN A2, 40931

Orbit data source: Space-Track

LAPAN A2, 40931 is a payload satellite owned by LAPAN (ID) in LEO that was launched on Mon, 28 Sep 2015 UTC via a PSLV-XL launch vehicle from the Sirharikota (SRI). Payload-class satellites include a variety of spacecraft equipped with specific instruments for various scientific and technological missions. These include communications satellites like Starlink; space stations such as the ISS; scientific satellites like the Hubble; Earth observation satellites from companies like Planet Labs, Umbra, and HawkEye 360; GPS; miniature CubeSats for education and research; and military/defense satellites.

Not visible in the next 10 days
Identifier
40931, 2015-052B
Orbit
LEO
Last TLE update
1 month ago
Origin
Manufacturer
LAPAN
Mission
Operational Civil Technology
Bus & Motor
LAPAN-A2, Unknown motor
Mass
76 kg wet, 76 kg dry
Launch date (UTC)
2015-09-28 (10 years ago)
Launch vehicle
PSLV-XL
Launch site
Sirharikota (SRI)
Object type
Payload
Rocket body
Debris
Shape & HBR
Box, 0.8 m
Radar Cross Section
0.800 m², Medium (>0.1 m² and < 1m²)

Expand to show TLE details & history

TLE from 1 month ago
0 LAPAN A2
1 40931U 15052B   25151.18580175  .00001241  00000-0  78118-4 0  9996
2 40931   6.0006  24.0987 0012733 338.8432  21.1169 14.78805930523047
Epoch: 2025-05-31T04:27Z
TLE epoch observation values (Epoch: 2025-05-31T04:27:33.271Z)
Latitude
-0°
Longitude
68.28022°
Altitude
621.715 km
Speed
7.556 km/s
True Right ascension
01h 36m 23s
True Declination
0° 00' 00"
Sunlit
Object was in daylight at epoch
Visualization orbit readout
Latitude
6.0159°
Longitude
-97.02851°
Altitude
621.706 km
Speed
7.556 km/s
Apparent Right ascension
12h 04m 04s
Apparent Declination
-22° 53' 29"
Sunlit
Object is in full shadow
Visualization observer readout
Local Sidereal Time
20:02:01
Azimuth
269.474° W
Elevation
-36.685°
Doppler factor
1
Orbital elements
Apogee altitude
648.218 km
Perigee altitude
630.347 km
Semi-major axis
7,017.42 km
Eccentricity
0.00127
Inclination
6.0006°
RAAN
24.0987°
Arg. of periapsis
338.8432°
True anomaly
Unknown
Mean anomaly
21.1169°
Eccentric anomaly
Unknown
Mean motion
3.69213 °/min
Orbital period
97.5 mins
BSTAR
0.000078118
Loading maneuver chart data...
Loading SW <> Apogee altitude chart data...
Loading historical data...
Loading historical data...
Loading historical data...
Loading historical data...
Loading historical data...
Loading historical data...
Loading historical data...

LAPAN A2 Visibility

Observer location: undefined°, undefined°

LAPAN A2 is likely not visible in the next few days
Span
Click to sort rows by Start time (UTC) header in descending order
Start Az.
Max El. time (UTC)
Max El. Az.
Max El.
End time (UTC)
End Az.
|